COSMOS 1275 DEB, 17638

Orbit data source: Space-Track

COSMOS 1275 DEB, 17638 is space debris in LEO originally from a launch on Thu, 04 Jun 1981 UTC launched from the Plesetsk Missile And Space Complex (PKMTR). Debris objects in space refer to the collection of defunct objects orbiting the Earth. Examples of debris include non-operational satellites, rocket bodies, and fragments generated from explosions, collisions, or faulty payload assembly.

Loading next visibility...
Identifier
17638, 1981-053LH
Orbit
LEO
Country
Flag of CISCIS
Related business
Manufacturer
Unknown
Mission
Spacecraft
Bus & Motor
Unknown
Mass
Unknown
Launch date (UTC)
1981-06-04 (45 years ago)
Launch vehicle
Unknown
Launch site
Plesetsk Missile And Space Complex (PKMTR)
Object type
Payload
Rocket body
Debris
Shape & HBR
Unknown shape, 0.1 m
Radar Cross Section
Small (<0.1 m²)

Expand to show TLE details & history
Last TLE update: 2 days ago

TLE from 2 days ago
0 COSMOS 1275 DEB
1 17638U 81053LH  26070.77339177  .00000926  00000-0  94136-3 0  9994
2 17638  82.9943   0.1023 0104284 139.0623 254.1046 13.73465927 31554
Epoch: 2026-03-11T18:33Z
TLE epoch observation values (Epoch: 2026-03-11T18:33:41.048Z)
Latitude
31.81093°
Longitude
-83.40261°
Altitude
1,012.992 km
Speed
7.337 km/s
True Right ascension
00h 17m 48s
True Declination
31° 39' 45"
Sunlit
Object was in daylight at epoch
Visualization orbit readout
Latitude
Unknown
Longitude
Unknown
Altitude
Unknown
Speed
Unknown
Apparent Right ascension
Unknown
Apparent Declination
Unknown
Sunlit
N/A
Visualization observer readout
Local Sidereal Time
12:21:09
Azimuth
Unknown
Elevation
Unknown
Doppler factor
Unknown
Orbital elements
Apogee altitude
1,061.081 km
Perigee altitude
907.524 km
Semi-major axis
7,362.44 km
Eccentricity
0.01043
Inclination
82.9943°
RAAN
0.1023°
Arg. of periapsis
139.0623°
True anomaly
252.95945°
Mean anomaly
254.1046°
Eccentric anomaly
253.53161°
Mean motion
3.43566 °/min
Orbital period
104.78 mins
BSTAR
0.00094136
Loading maneuver chart data...
Computing Atmospheric mass density...
Loading historical data...
Loading historical data...
Loading historical data...
Loading historical data...
Loading historical data...
Loading historical data...
Loading historical data...

Documentation

Showing up to 5 results
|